Zurück zum Katalog

COSMOS 2584

GLONASS

AktivNavigationMEO
NORAD 63130·PAYLOAD·🇷🇺 Russia

Gestartet Mar 2, 2025 von Plesetsk Cosmodrome

Loading…

Nächste Überflüge (nächste 24 Stunden)

TLE

AktuellSource: CelesTrak SupGP

Epoche: Sep 12, 2026, 23:59 UTC

1 63130C 25042A   26255.99979167  .00000000  00000+0  00000+0 0  2556
2 63130  65.1399  69.8188 0006518 202.9105 240.2713  2.13103580    10

Verfolge COSMOS 2584 in Echtzeit mit AllMySat

Download on the App Store